EW8241 Weather Reports


time (UTC)temp
C
wind
direction
speed
KPH
gust
KPH
rain 1hr
cm
rain 24hr
cm
rain mn
cm
humidity
%
barometer
mb
20260504034536 14 0.0 0.0 0.00 0.00 0.00 70 1013.4
20260504033516 14 0.0 0.0 0.00 0.00 0.00 70 1013.5
20260504032516 14 0.0 0.0 0.00 0.00 0.00 71 1013.5
20260504031516 14 0.0 0.0 0.00 0.00 0.00 70 1013.6
20260504030516 14 0.0 0.0 0.00 0.00 0.00 70 1013.6
20260504025536 14 0.0 0.0 0.00 0.00 0.00 70 1013.6
20260504024516 14 0.0 0.0 0.00 0.00 0.00 69 1013.6
20260504023516 15 0.0 0.0 0.00 0.00 0.00 69 1013.6
20260504022516 15 0.0 0.0 0.00 0.00 0.00 67 1013.9
20260504021535 15 0.0 0.0 0.00 0.00 0.00 67 1014.0
20260504020516 15 0.0 0.0 0.00 0.00 0.00 66 1014.0
20260504015515 15 0.0 0.0 0.00 0.00 0.00 65 1013.8
20260504014516 15 0.0 0.0 0.00 0.00 0.00 65 1013.9
20260504013515 15 0.0 0.0 0.00 0.00 0.00 65 1014.0
20260504012515 15 0.0 3.2 0.00 0.00 0.00 65 1013.9
20260504011516 15 0.0 0.0 0.00 0.00 0.00 64 1014.0
20260504010535 15 0.0 0.0 0.00 0.00 0.00 64 1014.1
20260504005515 15 0.0 0.0 0.00 0.00 0.00 64 1014.2
20260504004535 15 0.0 1.6 0.00 0.00 0.00 65 1014.3
20260504003515 15 0.0 0.0 0.00 0.00 0.00 64 1014.2
20260504002515 15 0.0 3.2 0.00 0.00 0.00 63 1014.3
20260504001515 15 0.0 1.6 0.00 0.00 0.00 61 1014.3
20260504000536 15 0.0 3.2 0.00 0.00 0.00 61 1014.4
20260503235516 16 0.0 1.6 0.00 0.00 0.00 59 1014.5
20260503234515 16 0.0 0.0 0.00 0.00 0.00 59 1014.5
20260503233536 16 0.0 0.0 0.00 0.00 0.00 58 1014.5
20260503232516 16 0.0 0.0 0.00 0.00 0.00 57 1014.5
20260503231556 16 0.0 3.2 0.00 0.00 0.00 59 1014.4
20260503230516 16 0.0 0.0 0.00 0.00 0.00 62 1014.3
20260503225515 16 0.0 1.6 0.00 0.00 0.00 62 1014.2
20260503224515 16 0.0 3.2 0.00 0.00 0.00 62 1014.1
20260503223515 16 0.0 9.7 0.00 0.00 0.00 61 1014.3
20260503222516 16 0.0 11.3 0.00 0.00 0.00 61 1014.2
20260503221515 16 225 1.6 11.3 0.00 0.00 0.00 60 1014.2
20260503220515 16 225 3.2 12.9 0.00 0.00 0.00 59 1014.2
20260503215517 16 225 1.6 11.3 0.00 0.00 0.00 59 1014.3
20260503214517 16 0.0 1.6 0.00 0.00 0.00 58 1014.2
20260503213517 17 0.0 6.4 0.00 0.00 0.00 57 1014.3
20260503212537 17 0.0 1.6 0.00 0.00 0.00 57 1014.1
20260503211517 17 0.0 11.3 0.00 0.00 0.00 56 1014.0
20260503210517 17 293 1.6 8.0 0.00 0.00 0.00 56 1014.0
20260503205517 17 0.0 3.2 0.00 0.00 0.00 56 1013.8
20260503204537 17 0.0 0.0 0.00 0.00 0.00 55 1013.7
20260503203517 18 0.0 1.6 0.00 0.00 0.00 53 1013.6
20260503202537 18 0.0 3.2 0.00 0.00 0.00 52 1013.5
20260503201517 18 225 1.6 9.7 0.00 0.00 0.00 52 1013.3
20260503200517 18 0.0 4.8 0.00 0.00 0.00 52 1013.1
20260503195517 18 0.0 8.0 0.00 0.00 0.00 53 1012.8
20260503194517 18 0.0 1.6 0.00 0.00 0.00 54 1012.7
20260503193517 18 0.0 1.6 0.00 0.00 0.00 54 1012.6
20260503192517 18 0.0 0.0 0.00 0.00 0.00 54 1012.5
20260503191517 18 0.0 1.6 0.00 0.00 0.00 54 1012.5
20260503190537 18 0.0 1.6 0.00 0.00 0.00 53 1012.4
20260503185517 19 0.0 0.0 0.00 0.00 0.00 52 1012.3
20260503184517 19 0.0 1.6 0.00 0.00 0.00 52 1012.2
20260503183517 19 0.0 0.0 0.00 0.00 0.00 53 1012.2
20260503182517 19 0.0 1.6 0.00 0.00 0.00 53 1012.2
20260503181517 20 0.0 1.6 0.00 0.00 0.00 53 1012.1
20260503180517 20 0.0 1.6 0.00 0.00 0.00 53 1012.2
20260503175517 20 0.0 8.0 0.00 0.00 0.00 53 1012.2
20260503174517 20 0.0 3.2 0.00 0.00 0.00 52 1012.2
20260503173537 20 0.0 1.6 0.00 0.00 0.00 53 1012.1
20260503172517 20 0.0 3.2 0.00 0.00 0.00 53 1012.2
20260503171517 20 0.0 1.6 0.00 0.00 0.00 53 1012.1
20260503170517 20 0.0 3.2 0.00 0.00 0.00 52 1012.2
20260503150517 21 0.0 1.6 0.00 0.00 0.00 54 1012.7
20260503130516 21 0.0 1.6 0.00 0.00 0.00 56 1013.6
20260503110536 18 0.0 0.0 0.00 0.00 0.00 70 1014.8
20260503081516 15 0.0 0.0 0.00 0.00 0.00 82 1015.2
20260503080516 15 0.0 0.0 0.00 0.00 0.00 82 1015.1
20260503072516 15 0.0 0.0 0.00 0.00 0.00 83 1014.9
20260503071516 15 0.0 0.0 0.00 0.00 0.00 82 1014.8
20260503070516 15 0.0 0.0 0.00 0.00 0.00 83 1014.6
20260503054516 14 0.0 8.0 0.00 0.00 0.00 85 1014.7
20260503053516 14 0.0 3.2 0.00 0.00 0.00 84 1014.5
20260503052516 14 0.0 6.4 0.00 0.00 0.00 84 1014.6
20260503051516 14 0.0 8.0 0.00 0.00 0.00 84 1014.6
20260503050517 15 0.0 11.3 0.00 0.00 0.00 85 1014.3
20260503045516 15 0.0 9.7 0.00 0.00 0.00 85 1014.4
20260503044516 15 0.0 1.6 0.00 0.00 0.00 86 1014.5
20260503043516 15 0.0 6.4 0.00 0.00 0.00 86 1014.5
20260503042516 15 0.0 3.2 0.00 0.00 0.00 86 1014.5
20260503041516 15 0.0 8.0 0.00 0.00 0.00 86 1014.6
20260503040516 15 0.0 6.4 0.00 0.00 0.00 86 1014.6
20260503035516 15 0.0 8.0 0.00 0.00 0.00 86 1014.3